STARLINK-11490, 62219

Orbit data source: Space-Track

STARLINK-11490, 62219 is a payload satellite owned by SpaceX/Seattle (US) in LEO that was launched on Thu, 05 Dec 2024 UTC via an FALCON 9 launch vehicle from the Air Force Western Test Range (AFWTR). Payload-class satellites include a variety of spacecraft equipped with specific instruments for various scientific and technological missions. These include communications satellites like Starlink; space stations such as the ISS; scientific satellites like the Hubble; Earth observation satellites from companies like Planet Labs, Umbra, and HawkEye 360; GPS; miniature CubeSats for education and research; and military/defense satellites.

Loading next visibility...
Identifier
62219, 2024-231B
Orbit
LEO
Country
Flag of USUS
Related business
Manufacturer
SpaceX/Seattle
Mission
Operational Commercial Communications
Bus & Motor
STARLINK V2MD, Unknown motor
Mass
960 kg wet, ~910 kg dry
Launch date (UTC)
2024-12-05 (9 months ago)
Launch vehicle
FALCON 9
Launch site
Air Force Western Test Range (AFWTR)
Object type
Payload
Rocket body
Debris
Shape & HBR
Box + 2 Pan, 14.5 m
Radar Cross Section
36.964 m², Large (>1 m²)

Expand to show TLE details & history
Last TLE update: 19 hours ago

TLE from 19 hours ago
0 STARLINK-11490
1 62219U 24231B   25257.59985537  .00169792  00000-0  13742-2 0  9997
2 62219  53.1569 249.3966 0001617 141.8573 218.2559 15.69773178 45751
Epoch: 2025-09-14T14:23Z
TLE epoch observation values (Epoch: 2025-09-14T14:23:47.503Z)
Latitude
-0.00009°
Longitude
39.63206°
Altitude
361.316 km
Speed
7.693 km/s
True Right ascension
16h 37m 35s
True Declination
0° 00' 00"
Sunlit
Object was in daylight at epoch
Visualization orbit readout
Latitude
Unknown
Longitude
Unknown
Altitude
Unknown
Speed
Unknown
Apparent Right ascension
Unknown
Apparent Declination
Unknown
Sunlit
N/A
Visualization observer readout
Local Sidereal Time
02:18:43
Azimuth
Unknown
Elevation
Unknown
Doppler factor
Unknown
Orbital elements
Apogee altitude
360.897 km
Perigee altitude
358.718 km
Semi-major axis
6,737.944 km
Eccentricity
0.00016
Inclination
53.1569°
RAAN
249.3966°
Arg. of periapsis
141.8573°
True anomaly
218.24443°
Mean anomaly
218.2559°
Eccentric anomaly
218.25016°
Mean motion
3.92421 °/min
Orbital period
91.74 mins
BSTAR
0.0013742
Loading maneuver chart data...
Computing Atmospheric mass density...
Loading historical data...
Loading historical data...
Loading historical data...
Loading historical data...
Loading historical data...
Loading historical data...
Loading historical data...

Documentation

Showing up to 5 results
|